AirNav   Everest Fuels
 
 1214 users online  

ME11 Cooper Seaplane Base
Hartford, Maine, USA

GOING TO HARTFORD?


FAA INFORMATION EFFECTIVE 10 SEPTEMBER 2020

Location

FAA Identifier: ME11
Lat/Long: 44-20-32.2440N 070-17-16.2080W
44-20.537400N 070-17.270133W
44.3422900,-70.2878356
(estimated)
Elevation: 373 ft. / 114 m (estimated)
Variation: 17W (1985)
From city: 3 miles E of HARTFORD, ME
Time zone: UTC -4 (UTC -5 during Standard Time)
Zip code: 04221

Seaplane Base Operations

Seaplane Base use: Private use. Permission required prior to landing
Activation date: 05/1989
Control tower: no
ARTCC: BOSTON CENTER
FSS: BANGOR FLIGHT SERVICE STATION
Attendance: UNATNDD
Wind indicator: yes
Segmented circle: no

Seaplane Base Communications

WX AWOS-3PT at LEW (18 nm S): 118.025 (207-783-2806)

Nearby radio navigation aids

VOR radial/distance  VOR name  Freq  Var
AUGr292/21.1AUGUSTA VOR/DME114.9518W

Seaplane Base Services

Runway Information

Runway 16W/34W

Dimensions: 4000 x 500 ft. / 1219 x 152 m
Surface: water
RUNWAY 16W  RUNWAY 34W
Traffic pattern: leftleft

Runway 5W/23W

Dimensions: 3000 x 500 ft. / 914 x 152 m
Surface: water
RUNWAY 5W  RUNWAY 23W
Traffic pattern: leftleft
Obstructions: 40 ft. trees, 800 ft. from runway, 20:1 slope to clear40 ft. trees, 800 ft. from runway, 20:1 slope to clear

Seaplane Base Ownership and Management from official FAA records

Ownership: Privately-owned
Owner: MICHAEL D. COOPER
PO BOX 552
N. TURNER, ME 04266
Phone 207-224-7950
Manager: MICHAEL D. COOPER
PO BOX 552
N. TURNER, ME 04266
Phone 207-224-7950

Seaplane Base Operational Statistics

Aircraft based on the field: 1
Single engine airplanes: 1
    

Additional Remarks

FOR CD CTC PORTLAND APCH AT 207-874-7320, WHEN APCH CLSD CTC BOSTON ARTCC AT 603-879-6859.

Instrument Procedures

There are no published instrument procedures at ME11.

Some nearby airports with instrument procedures:

81B - Oxford County Regional Airport (14 nm SW)
KLEW - Auburn/Lewiston Municipal Airport (18 nm S)
KAUG - Augusta State Airport (21 nm E)
0B1 - Bethel Regional Airport (23 nm W)
KWVL - Waterville Robert LaFleur Airport (29 nm NE)
 
Loc | Ops | Rwys | IFR | FBO | Links
Com | Nav | Svcs | Stats | Notes

Auburn-Lewiston Municipal Airport
 
Area around ME11 (Cooper Seaplane Base)
 
Road maps at: MapQuest Bing Google
 
Aerial photo
No photo
 
Sectional chart

 
Airport distance calculator
Flying to Cooper Seaplane Base? Find the distance to fly.

From to ME11

Sunrise and sunset
Times for 29-Sep-2020
 Local
(UTC-4)
 Zulu
(UTC)
Morning civil twilight06:1010:10
Sunrise06:3910:39
Sunset18:2422:24
Evening civil twilight18:5322:53

Current date and time
Zulu (UTC)  29-Sep-2020 22:55:20
Local (UTC-4)  29-Sep-2020 18:55:20
 
METAR
KLEW 
19nm S 
292205Z AUTO 14008KT 10SM BKN008 18/17 A2985 RMK AO2
KAUG 
21nm E 
292226Z AUTO 16006KT 10SM BKN012 OVC080 19/17 A2987 RMK AO2 T01890172
KWVL 
29nm E 
292156Z AUTO VRB03KT 10SM CLR 21/17 A2984 RMK AO2 SLP129 T02060167
KIWI 
33nm SE 
292153Z AUTO VRB03KT 3/4SM BR OVC002 18/17 A2988 RMK AO2 SLP118 T01780172
KIZG 
36nm SW 
292154Z AUTO 17006KT 10SM FEW080 SCT100 BKN110 24/16 A2982 RMK AO2 SLP098 T02440161
TAF
KAUG 
21nm E 
291720Z 2918/3018 18006KT P6SM SCT015 TEMPO 2923/3003 P6SM BKN009 OVC012 FM300300 15006KT 3SM -SHRA BR OVC004 FM300600 16012G20KT 1/2SM -RA FG OVC002 WS020/18045KT FM301000 17017G30KT 3SM -SHRA BR OVC002 WS015/18050KT FM301500 23010G17KT P6SM BKN020 OVC100
NOTAMs
Click for the latest NOTAMs
NOTAMs are issued by the DoD/FAA and will open in a separate window not controlled by AirNav.

 

 
 

Would you like to see your business listed on this page?

 If your business provides an interesting product or service to pilots, flight crews, aircraft, or users of the Cooper Seaplane Base, you should consider listing it here.  To start the listing process, click on the button below
 
Add a business
 

Other Pages about Cooper Seaplane Base

Update a link
 
Copyright © AirNav, LLC. All rights reserved. Privacy Policy  Contact